sat.trackr.live / text

‹ back to catalog

FSI-SAT2

NORAD 68792 · 2026-088A

PAYLOAD ACTIVE UNKNOWN

§ Identity

Operator
Country
JPN
Launch date
2026-04-23
Launch site
RLLB
Launch vehicle
Mass (kg)
RCS (m²)

External: N2YO · Heavens-Above · Gunter

§ Orbital elements

Epoch: 2026-05-24T21:49:11.705664Z

Period
95.58 min
Inclination
97.5034°
Eccentricity
0.0014625
Mean motion
15.06604175 rev/d
Perigee alt
536.5 km
Apogee alt
556.7 km
Semi-major
6,924.7 km
B*
2.7789e-4
RAAN
294.7608°
Arg perigee
182.1544°
Mean anomaly
177.9623°
Rev number
478

§ Raw data

FSI-SAT21 68792U 26088A   26144.90916326  .00004065  00000+0  27789-3 0  99992 68792  97.5034 294.7608 0014625 182.1544 177.9623 15.06604175  4780

JSON: /api/v1/satellites/68792 · /tle

For live sub-satellite position, see the globe view (requires WebGL).

§ Visibility from observer

Set your observer location to see the next 7 days of passes ≥ 10°. The values pass through the URL so the page stays shareable.

No JS? Fill the form by hand. The geolocation button needs JavaScript.